sat.trackr.live / text

‹ back to catalog

TIANHUI 5B

NORAD 58201 · 2023-168C

PAYLOAD ACTIVE UNKNOWN

§ Identity

Operator
Country
PRC
Launch date
2023-10-31
Launch site
TAISC
Launch vehicle
Mass (kg)
RCS (m²)

External: N2YO · Heavens-Above · Gunter

§ Orbital elements

Epoch: 2026-05-24T11:12:02.124000Z

Period
96.80 min
Inclination
97.8213°
Eccentricity
0.0002155
Mean motion
14.87577057 rev/d
Perigee alt
604.0 km
Apogee alt
607.0 km
Semi-major
6,983.6 km
B*
4.2650e-5
RAAN
152.1806°
Arg perigee
97.9191°
Mean anomaly
262.2270°
Rev number
13,907

§ Raw data

TIANHUI 5B1 58201U 23168C   26144.46669125  .00000333  00000+0  42650-4 0  99912 58201  97.8213 152.1806 0002155  97.9191 262.2270 14.87577057139072

JSON: /api/v1/satellites/58201 · /tle

For live sub-satellite position, see the globe view (requires WebGL).

§ Visibility from observer

Set your observer location to see the next 7 days of passes ≥ 10°. The values pass through the URL so the page stays shareable.

No JS? Fill the form by hand. The geolocation button needs JavaScript.